Location: Newark
(40.9833°N, 0.0333°W)
Time: 09:35:48
(UTC+00:00)

Transit 4A - Pass Details

Date: 01 November 2020
Orbit: 862 x 982 km, 66.8° (Epoch: 26 November)

Event Time Altitude Azimuth Distance (km) Brightness Sun altitude
Rises 21:21:08 0° 338° (NNW) 3,694 11.5 -49.5°
Enters shadow 21:22:57 - 345° (NNW) 3,154 11.0 -49.8°
Reaches altitude 10° 21:24:29 10° 354° (N) 2,741 - -50.1°
Maximum altitude 21:29:09 21° 41° (NE) 2,058 - -50.8°
Drops below altitude 10° 21:33:46 10° 88° (E) 2,702 - -51.5°
Sets 21:37:00 0° 104° (ESE) 3,628 - -52.1°
